Location: ActonStarParty
(42.4766°N, 71.4538°W)
Time: 18:00:58
(UTC-05:00)

Amateur Radio Satellites - All Passes

Search period start: 28 February 2015 17:30
Search period end: 01 March 2015 17:30
Location: ActonStarParty, 42.4766°N, 71.4538°W

Satellite Date Start Highest point End Downlink Frequencies (MHz)
Time Altitude Azimuth
VERMONT LUNAR 28 Feb 17:31:27 17:33:40 16° 152° (SSE) 17:35:58 437.305
M-CUBED/EXP-1 PRIME 28 Feb 17:32:56 17:36:08 21° 297° (WNW) 17:39:24 437.505
AUBIESAT-1 28 Feb 17:37:00 17:40:13 21° 297° (WNW) 17:43:30 437.475
HO-68 28 Feb 17:39:18 17:42:42 15° 52° (NE) 17:46:27 435.675
Cubesat XI-IV 28 Feb 17:40:12 17:45:27 54° 260° (W) 17:50:44 437.490
CUTE-I 28 Feb 17:50:06 17:55:13 44° 262° (W) 18:00:22 437.470
STRAND 1 28 Feb 17:57:18 18:01:32 26° 94° (E) 18:05:52 437.568
BEESAT 3 28 Feb 18:06:07 18:10:08 52° 307° (NW) 18:14:12 437.485
AIST 2 28 Feb 18:12:40 18:16:52 62° 120° (ESE) 18:21:08 435.215
O/OREOS (USA 219) 28 Feb 18:17:49 18:21:39 25° 56° (NE) 18:25:30 437.305
BEESAT 2 28 Feb 18:29:11 18:33:03 37° 311° (NW) 18:36:57 435.950
AIST 1 28 Feb 18:36:14 18:40:34 53° 266° (W) 18:44:50
DOVE 4 28 Feb 18:38:32 18:41:26 16° 64° (ENE) 18:44:27 437.250
COMPASS 1 28 Feb 18:41:41 18:42:58 11° 63° (ENE) 18:44:29 437.405
YUBILEINY 28 Feb 18:47:10 18:51:30 14° 307° (NW) 18:55:16 435.215
CUBESAT XI-V 28 Feb 18:49:27 18:54:06 57° 287° (WNW) 18:58:43 437.345
PHONESAT 2.4 28 Feb 18:55:03 18:58:12 28° 158° (SSE) 19:01:24 2401.200-2431.200
PRISM 28 Feb 18:58:04 19:02:03 40° 289° (WNW) 19:06:00 437.425
CANX-2 28 Feb 19:02:20 19:05:59 29° 70° (ENE) 19:09:41 2200.000
SEEDS 28 Feb 19:03:17 19:06:35 23° 68° (ENE) 19:09:58 437.485
CINEMA 3 28 Feb 19:04:38 19:07:02 14° 64° (ENE) 19:09:36 145.822/145.860
VERMONT LUNAR 28 Feb 19:07:48 19:11:10 46° 167° (SSE) 19:14:32 437.305
BRITE-PL 28 Feb 19:10:20 19:15:56 62° 74° (ENE) 19:21:22 437.365/2234.400
CUTE 1.7 + AOD 2 28 Feb 19:20:55 19:24:53 42° 72° (ENE) 19:28:54 437.475
HO-68 28 Feb 19:22:14 19:29:18 69° 70° (ENE) 19:36:26 435.675
GOMX 1 28 Feb 19:27:28 19:32:49 61° 75° (ENE) 19:37:58 467.674
STRAND 1 28 Feb 19:36:06 19:40:53 39° 291° (WNW) 19:45:37 437.568
CUBEBUG 2 28 Feb 19:40:26 19:43:21 18° 66° (ENE) 19:46:21 437.445
Oscar 11 28 Feb 19:49:13 19:52:48 27° 69° (ENE) 19:56:29 145.826/435.025
AIST 2 28 Feb 19:52:50 19:55:55 18° 320° (NW) 19:58:54 435.215
O/OREOS (USA 219) 28 Feb 19:56:58 20:01:10 35° 254° (WSW) 20:05:18 437.305
DELFI C3 28 Feb 20:00:23 20:03:45 26° 70° (ENE) 20:07:11 145.870
DX 1 28 Feb 20:09:34 20:13:03 24° 67° (ENE) 20:16:37 434.975-435.025
PCSat 28 Feb 20:12:08 20:17:00 36° 112° (ESE) 20:21:57 145.827
AAUSAT CUBESAT 2 28 Feb 20:13:19 20:17:27 80° 257° (WSW) 20:21:37 437.432
DOVE 4 28 Feb 20:13:34 20:18:46 71° 259° (WSW) 20:23:45 437.250
COMPASS 1 28 Feb 20:14:04 20:18:12 68° 259° (WSW) 20:22:22 437.405
VELOX 1 28 Feb 20:15:02 20:16:30 12° 62° (ENE) 20:18:13 145.980
FUNcube-1 28 Feb 20:28:41 20:32:40 35° 71° (ENE) 20:36:37 145.935
ZACube-1 28 Feb 20:29:02 20:33:04 36° 71° (ENE) 20:37:02 437.345
PHONESAT 2.4 28 Feb 20:32:48 20:36:23 61° 175° (S) 20:39:59 2401.200-2431.200
CANX-2 28 Feb 20:38:30 20:41:57 24° 266° (W) 20:45:22 2200.000
SEEDS 28 Feb 20:38:36 20:42:19 30° 265° (W) 20:46:00 437.485
CINEMA 3 28 Feb 20:39:00 20:43:50 69° 258° (WSW) 20:48:28 145.822/145.860
UKube-1 28 Feb 20:41:16 20:45:27 48° 72° (ENE) 20:49:40 .
UWE-3 28 Feb 20:42:34 20:47:00 63° 75° (ENE) 20:51:20 435.000/436.395/437.385
VERMONT LUNAR 28 Feb 20:45:29 20:48:56 63° 183° (S) 20:52:23 437.305
HUMSAT D 28 Feb 20:50:38 20:54:23 32° 70° (ENE) 20:58:08 437.325/437.525
BRITE-PL 28 Feb 20:50:46 20:54:51 19° 271° (W) 20:58:39 437.365/2234.400
GONETS M04 28 Feb 20:56:37 21:04:21 39° 87° (E) 21:12:14
CUTE 1.7 + AOD 2 28 Feb 20:58:19 21:01:06 16° 270° (W) 21:03:43 437.475
GOMX 1 28 Feb 21:07:37 21:11:20 18° 270° (W) 21:14:46 467.674
50 SAT 28 Feb 21:11:23 21:15:04 37° 72° (ENE) 21:18:46 437.505
HO-68 28 Feb 21:12:11 21:17:43 23° 269° (W) 21:23:01 435.675
ANTELSAT 28 Feb 21:13:43 21:15:00 11° 88° (E) 21:16:33 437.575/2403.000
CUBEBUG 2 28 Feb 21:15:21 21:19:46 48° 261° (W) 21:24:04 437.445
Oscar 11 28 Feb 21:25:15 21:28:58 27° 265° (W) 21:32:38 145.826/435.025
DELFI C3 28 Feb 21:35:36 21:38:57 24° 266° (W) 21:42:15 145.870
AISAT 28 Feb 21:37:23 21:41:53 83° 76° (ENE) 21:46:25 437.250
DUCHIFAT 1 28 Feb 21:42:19 21:44:04 13° 89° (E) 21:46:02 145.980
DX 1 28 Feb 21:45:11 21:49:09 33° 263° (W) 21:53:09 434.975-435.025
VELOX 1 28 Feb 21:48:02 21:52:32 79° 257° (WSW) 21:57:03 145.980
CUBEBUG 1 28 Feb 21:49:02 21:53:16 45° 72° (ENE) 21:57:33 437.445
ESTCUBE 1 28 Feb 21:55:09 21:59:35 58° 73° (ENE) 22:04:04 437.505/2401.250
PCSat 28 Feb 21:55:27 22:00:26 36° 310° (NW) 22:05:25 145.827
POLYITAN 1 28 Feb 21:58:46 22:01:52 20° 92° (E) 22:05:04 437.675
POPSAT HIP 1 28 Feb 22:00:25 22:03:34 21° 93° (E) 22:06:48 437.405
FUNcube-1 28 Feb 22:05:44 22:09:09 21° 267° (W) 22:12:24 145.935
ZACube-1 28 Feb 22:06:12 22:09:34 21° 267° (W) 22:12:48 437.345
UNISAT 6 28 Feb 22:09:34 22:13:42 47° 99° (E) 22:17:54 437.425
PHONESAT 2.4 28 Feb 22:11:10 22:14:43 53° 191° (S) 22:18:15 2401.200-2431.200
UKube-1 28 Feb 22:19:10 22:21:56 16° 269° (W) 22:24:32 .
UWE-3 28 Feb 22:22:00 22:24:00 12° 271° (W) 22:25:46 435.000/436.395/437.385
VERMONT LUNAR 28 Feb 22:23:28 22:26:38 32° 200° (SSW) 22:29:45 437.305
NANOSAT C BR1 28 Feb 22:23:56 22:27:53 37° 97° (E) 22:31:48 145.865
HUMSAT D 28 Feb 22:26:56 22:30:15 22° 267° (W) 22:33:28 437.325/437.525
SPROUT 28 Feb 22:30:26 22:34:16 32° 70° (ENE) 22:38:10 437.525
TIGRISAT 28 Feb 22:35:41 22:39:59 89° 286° (WNW) 22:44:18 435.000
DANDE 28 Feb 22:36:37 22:40:22 16° 91° (E) 22:43:58 436.750
TISAT 1 28 Feb 22:42:06 22:46:04 39° 71° (ENE) 22:50:05 437.305
50 SAT 28 Feb 22:47:35 22:50:17 17° 268° (W) 22:52:50 437.505
ANTELSAT 28 Feb 22:48:05 22:52:20 64° 286° (WNW) 22:56:36 437.575/2403.000
GONETS M04 28 Feb 22:52:47 23:01:07 47° 287° (WNW) 23:09:23
RS-15 28 Feb 22:55:11 23:05:38 57° 114° (ESE) 23:16:19 29.354- 29.394
QB50P1 28 Feb 22:55:59 23:00:15 87° 102° (ESE) 23:04:28 145.935-145.965
SWISSCUBE 28 Feb 22:57:39 22:59:26 12° 60° (ENE) 23:01:26 437.505
QB50P2 28 Feb 22:59:02 23:03:18 85° 285° (WNW) 23:07:31 145.880/145.840
BEESAT 28 Feb 23:06:10 23:08:26 14° 61° (ENE) 23:10:54 436.000
DUCHIFAT 1 28 Feb 23:16:12 23:20:22 56° 286° (WNW) 23:24:27 145.980
CUSAT 1 28 Feb 23:17:01 23:23:07 40° 97° (E) 23:27:54 437.405
BUGSAT 1 28 Feb 23:17:59 23:22:10 71° 285° (WNW) 23:26:15 437.445
CUBEBUG 1 28 Feb 23:26:54 23:29:56 17° 269° (W) 23:32:50 437.445
ITUPSAT 1 28 Feb 23:30:32 23:34:11 23° 66° (ENE) 23:37:58 437.325
POLYITAN 1 28 Feb 23:34:04 23:37:58 35° 289° (WNW) 23:41:46 437.675
ESTCUBE 1 28 Feb 23:34:28 23:36:56 14° 271° (W) 23:39:12 437.505/2401.250
POPSAT HIP 1 28 Feb 23:35:44 23:39:36 34° 290° (WNW) 23:43:24 437.405
UNISAT 6 28 Feb 23:47:26 23:50:12 17° 295° (WNW) 23:52:51 437.425
PHONESAT 2.4 28 Feb 23:50:01 23:52:47 20° 207° (SSW) 23:55:30 2401.200-2431.200
NANOSAT C BR1 01 Mar 00:00:24 00:03:32 20° 293° (WNW) 00:06:33 145.865
SPROUT 01 Mar 00:06:53 00:10:25 24° 266° (W) 00:13:54 437.525
DANDE 01 Mar 00:16:26 00:23:38 79° 280° (W) 00:29:03 436.750
TISAT 1 01 Mar 00:18:57 00:22:05 19° 268° (W) 00:25:05 437.305
SWISSCUBE 01 Mar 00:31:54 00:36:41 84° 258° (WSW) 00:41:31 437.505
BEESAT 01 Mar 00:40:58 00:45:44 74° 257° (WSW) 00:50:33 436.000
BEESAT 3 01 Mar 00:47:43 00:50:17 16° 39° (NE) 00:52:56 437.485
YUBILEINY 01 Mar 00:58:52 01:02:44 14° 53° (NE) 01:07:11 435.215
CUSAT 1 01 Mar 01:00:34 01:06:00 28° 286° (WNW) 01:10:16 437.405
ITAMSAT 1 01 Mar 01:06:22 01:09:57 19° 91° (E) 01:13:41 435.822/435.867
ITUPSAT 1 01 Mar 01:07:21 01:11:52 41° 262° (W) 01:16:25 437.325
RS-15 01 Mar 01:07:54 01:18:22 48° 319° (NW) 01:28:59 29.354- 29.394
BEESAT 2 01 Mar 01:10:29 01:13:41 21° 43° (NE) 01:16:55 435.950
Oscar 19 01 Mar 01:11:39 01:16:46 63° 102° (ESE) 01:21:50 437.125/150
KKS-1 01 Mar 01:26:08 01:30:34 65° 74° (ENE) 01:35:01 437.445
STARS 01 Mar 01:37:23 01:41:43 55° 73° (ENE) 01:46:05 437.465
SO-50 01 Mar 01:45:26 01:49:57 65° 120° (ESE) 01:54:41 436.795
Gurwin Techsat 1B 01 Mar 02:04:58 02:10:08 50° 99° (E) 02:15:18 435.225
DANDE 01 Mar 02:05:00 02:07:26 12° 294° (WNW) 02:09:19 436.750
BEESAT 3 01 Mar 02:24:45 02:28:53 70° 238° (WSW) 02:32:56 437.485
MOZHAYETS 4 01 Mar 02:25:13 02:27:31 14° 63° (ENE) 02:30:02
AIST 2 01 Mar 02:34:03 02:38:14 49° 52° (NE) 02:42:20 435.215
ITAMSAT 1 01 Mar 02:44:45 02:49:52 55° 289° (WNW) 02:54:55 435.822/435.867
M-CUBED/EXP-1 PRIME 01 Mar 02:48:01 02:51:13 51° 69° (ENE) 02:54:32 437.505
BEESAT 2 01 Mar 02:48:07 02:52:07 46° 242° (WSW) 02:56:03 435.950
AUBIESAT-1 01 Mar 02:51:42 02:54:54 50° 69° (ENE) 02:58:13 437.475
Oscar 19 01 Mar 02:52:15 02:55:40 18° 298° (WNW) 02:58:54 437.125/150
YUBILEINY 01 Mar 02:53:00 03:01:48 66° 78° (ENE) 03:10:35 435.215
KKS-1 01 Mar 03:05:44 03:07:44 12° 272° (W) 03:09:30 437.445
STARS 01 Mar 03:16:06 03:18:37 14° 270° (W) 03:20:55 437.465
HORYU 2 01 Mar 03:19:17 03:23:45 75° 102° (ESE) 03:28:12 437.375
JAS-2 01 Mar 03:21:56 03:28:26 33° 93° (E) 03:35:24 435.910
RS-15 01 Mar 03:26:02 03:34:27 24° 351° (N) 03:43:01 29.354- 29.394
SO-50 01 Mar 03:27:26 03:31:00 21° 321° (NW) 03:34:34 436.795
AO-7 01 Mar 03:32:43 03:40:40 48° 100° (E) 03:48:38 29.400- 29.500
Gurwin Techsat 1B 01 Mar 03:45:41 03:49:49 23° 296° (WNW) 03:53:49 435.225
MOZHAYETS 4 01 Mar 03:59:46 04:04:18 65° 260° (W) 04:08:51
AIST 2 01 Mar 04:13:38 04:16:30 17° 249° (WSW) 04:19:12 435.215
PRISM 01 Mar 04:15:22 04:17:44 15° 64° (ENE) 04:20:17 437.425
CUBESAT XI-V 01 Mar 04:17:55 04:20:52 17° 64° (ENE) 04:23:59 437.345
YUBILEINY 01 Mar 04:50:51 04:58:02 28° 277° (W) 05:04:55 435.215
HORYU 2 01 Mar 04:58:04 04:59:53 12° 298° (WNW) 05:01:30 437.375
PCSat 01 Mar 04:59:01 05:03:59 35° 50° (NE) 05:08:57 145.827
JAS-2 01 Mar 05:06:37 05:13:42 55° 290° (WNW) 05:21:13 435.910
STRAND 1 01 Mar 05:13:38 05:18:24 40° 69° (ENE) 05:23:14 437.568
AO-7 01 Mar 05:25:46 05:33:24 41° 299° (WNW) 05:40:53 29.400- 29.500
RS-15 01 Mar 05:42:14 05:51:41 30° 25° (NNE) 06:01:39 29.354- 29.394
PRISM 01 Mar 05:48:52 05:52:54 49° 260° (W) 05:56:58 437.425
CUBESAT XI-V 01 Mar 05:53:19 05:57:56 55° 261° (W) 06:02:34 437.345
Cubesat XI-IV 01 Mar 05:56:44 06:02:02 59° 100° (E) 06:07:20 437.490
CUTE-I 01 Mar 06:06:14 06:11:37 71° 102° (ESE) 06:16:58 437.470
PCSat 01 Mar 06:42:28 06:47:26 36° 249° (WSW) 06:52:19 145.827
HO-68 01 Mar 06:53:28 06:54:33 11° 83° (E) 06:56:16 435.675
STRAND 1 01 Mar 06:53:30 06:57:46 25° 267° (W) 07:01:57 437.568
JAS-2 01 Mar 06:55:03 06:57:32 12° 307° (NW) 06:59:36 435.910
AIST 1 01 Mar 07:06:00 07:10:21 88° 99° (E) 07:14:46
GONETS M04 01 Mar 07:06:06 07:11:59 20° 60° (ENE) 07:18:15
BRITE-PL 01 Mar 07:16:50 07:19:33 16° 88° (E) 07:22:22 437.365/2234.400
GOMX 1 01 Mar 07:31:03 07:33:20 14° 88° (E) 07:35:44 467.674
Cubesat XI-IV 01 Mar 07:37:49 07:41:45 20° 297° (WNW) 07:45:30 437.490
CUTE-I 01 Mar 07:47:43 07:51:11 17° 299° (WNW) 07:54:27 437.470
RS-15 01 Mar 07:54:58 08:06:24 76° 53° (NE) 08:18:23 29.354- 29.394
AAUSAT CUBESAT 2 01 Mar 07:57:13 07:59:40 15° 90° (E) 08:02:16 437.432
COMPASS 1 01 Mar 07:58:03 08:00:55 18° 91° (E) 08:03:55 437.405
DOVE 4 01 Mar 08:13:12 08:16:51 27° 94° (E) 08:20:28 437.250
ANTELSAT 01 Mar 08:13:54 08:15:44 13° 64° (ENE) 08:17:45 437.575/2403.000
SEEDS 01 Mar 08:21:59 08:25:58 40° 98° (E) 08:29:59 437.485
CANX-2 01 Mar 08:22:17 08:26:28 54° 100° (E) 08:30:39 2200.000
O/OREOS (USA 219) 01 Mar 08:31:03 08:34:41 24° 103° (ESE) 08:38:24 437.305
CINEMA 3 01 Mar 08:34:14 08:37:37 24° 93° (E) 08:41:04 145.822/145.860
UWE-3 01 Mar 08:34:34 08:35:30 11° 88° (E) 08:36:40 435.000/436.395/437.385
DUCHIFAT 1 01 Mar 08:36:28 08:37:58 12° 63° (ENE) 08:39:41 145.980
HO-68 01 Mar 08:36:39 08:43:49 68° 103° (ESE) 08:50:59 435.675
SO-50 01 Mar 08:37:03 08:39:42 15° 33° (NNE) 08:42:29 436.795
CUTE 1.7 + AOD 2 01 Mar 08:41:06 08:45:22 81° 102° (ESE) 08:49:38 437.475
POLYITAN 1 01 Mar 08:53:05 08:55:59 18° 66° (ENE) 08:59:01 437.675
BRITE-PL 01 Mar 08:54:04 08:58:34 48° 288° (WNW) 09:02:44 437.365/2234.400
POPSAT HIP 1 01 Mar 08:54:28 08:57:24 19° 66° (ENE) 09:00:27 437.405
GONETS M04 01 Mar 09:01:29 09:10:16 90° 277° (W) 09:19:05
CUBEBUG 2 01 Mar 09:06:12 09:09:52 30° 96° (E) 09:13:34 437.445
GOMX 1 01 Mar 09:07:38 09:11:58 50° 287° (WNW) 09:16:03 467.674
UNISAT 6 01 Mar 09:09:16 09:13:29 46° 73° (ENE) 09:17:41 437.425
Oscar 11 01 Mar 09:11:14 09:15:27 49° 99° (E) 09:19:39 145.826/435.025
DELFI C3 01 Mar 09:14:11 09:18:04 41° 98° (E) 09:21:57 145.870
NANOSAT C BR1 01 Mar 09:17:22 09:21:09 31° 70° (ENE) 09:24:58 145.865
ISS 01 Mar 09:20:15 09:23:26 64° 142° (SE) 09:26:38 145.825
AISAT 01 Mar 09:29:15 09:31:45 15° 90° (E) 09:34:25 437.250
AAUSAT CUBESAT 2 01 Mar 09:31:36 09:35:37 45° 287° (WNW) 09:39:36 437.432
DX 1 01 Mar 09:32:38 09:36:44 38° 98° (E) 09:40:49 434.975-435.025
COMPASS 1 01 Mar 09:32:54 09:36:50 38° 288° (WNW) 09:40:43 437.405
TIGRISAT 01 Mar 09:34:59 09:39:26 86° 74° (ENE) 09:43:47 435.000
VELOX 1 01 Mar 09:39:09 09:42:14 19° 92° (E) 09:45:27 145.980
ANTELSAT 01 Mar 09:47:41 09:52:05 67° 259° (WSW) 09:56:25 437.575/2403.000
QB50P1 01 Mar 09:49:11 09:53:28 71° 75° (ENE) 09:57:45 145.935-145.965
ESTCUBE 1 01 Mar 09:49:31 09:51:06 12° 87° (E) 09:52:57 437.505/2401.250
DOVE 4 01 Mar 09:51:01 09:54:38 25° 292° (WNW) 09:58:03 437.250
FUNcube-1 01 Mar 09:52:24 09:56:33 68° 101° (E) 10:00:41 145.935
QB50P2 01 Mar 09:52:25 09:56:42 79° 76° (ENE) 10:01:00 145.880/145.840
ZACube-1 01 Mar 09:53:01 09:57:11 71° 101° (ESE) 10:01:19 437.345
CUSAT 1 01 Mar 09:57:39 09:58:29 11° 68° (ENE) 09:59:24 437.405
SEEDS 01 Mar 09:58:34 10:01:33 18° 293° (WNW) 10:04:25 437.485
CANX-2 01 Mar 09:59:35 10:02:01 15° 295° (WNW) 10:04:18 2200.000
UKube-1 01 Mar 10:04:11 10:08:34 82° 102° (ESE) 10:12:54 .
RS-15 01 Mar 10:08:17 10:18:06 33° 253° (WSW) 10:27:52 29.354- 29.394
BUGSAT 1 01 Mar 10:08:18 10:12:34 86° 80° (E) 10:16:53 437.445
UWE-3 01 Mar 10:08:27 10:12:35 62° 286° (WNW) 10:16:41 435.000/436.395/437.385
DUCHIFAT 1 01 Mar 10:09:02 10:13:19 71° 258° (WSW) 10:17:36 145.980
HUMSAT D 01 Mar 10:09:31 10:13:34 56° 100° (E) 10:17:37 437.325/437.525
O/OREOS (USA 219) 01 Mar 10:09:45 10:13:56 35° 300° (WNW) 10:18:10 437.305
CINEMA 3 01 Mar 10:11:16 10:14:53 28° 291° (WNW) 10:18:23 145.822/145.860
SO-50 01 Mar 10:16:15 10:21:12 70° 55° (NE) 10:26:08 436.795
CUTE 1.7 + AOD 2 01 Mar 10:20:00 10:20:45 10° 298° (WNW) 10:21:17 437.475
50 SAT 01 Mar 10:23:57 10:27:51 57° 100° (E) 10:31:45 437.505
HO-68 01 Mar 10:25:17 10:31:02 26° 301° (WNW) 10:36:37 435.675
POLYITAN 1 01 Mar 10:27:33 10:31:40 42° 262° (W) 10:35:46 437.675
POPSAT HIP 1 01 Mar 10:28:57 10:33:02 42° 262° (W) 10:37:07 437.405
CUBEBUG 2 01 Mar 10:43:11 10:46:29 23° 292° (WNW) 10:49:41 437.445
UNISAT 6 01 Mar 10:47:42 10:50:35 16° 269° (W) 10:53:17 437.425
Oscar 11 01 Mar 10:48:31 10:51:18 16° 295° (WNW) 10:53:56 145.826/435.025
DELFI C3 01 Mar 10:50:16 10:53:01 17° 293° (WNW) 10:55:37 145.870
Oscar 19 01 Mar 10:53:15 10:55:33 13° 60° (ENE) 10:58:04 437.125/150
NANOSAT C BR1 01 Mar 10:53:35 10:57:04 23° 266° (W) 11:00:29 145.865
ISS 01 Mar 10:57:20 11:00:05 25° 341° (NNW) 11:02:50 145.825
DANDE 01 Mar 10:59:37 11:02:24 78° 79° (E) 11:04:59 436.750
GONETS M04 01 Mar 11:00:23 11:06:03 18° 281° (W) 11:11:16
AISAT 01 Mar 11:04:24 11:08:46 52° 288° (WNW) 11:13:03 437.250
DX 1 01 Mar 11:09:28 11:12:46 21° 294° (WNW) 11:15:58 434.975-435.025
CUBEBUG 1 01 Mar 11:13:29 11:17:57 86° 105° (ESE) 11:22:21 437.445
VELOX 1 01 Mar 11:14:50 11:19:03 42° 289° (WNW) 11:23:13 145.980
ESTCUBE 1 01 Mar 11:24:00 11:28:33 69° 286° (WNW) 11:33:04 437.505/2401.250
QB50P1 01 Mar 11:29:07 11:29:56 10° 273° (W) 11:30:28 145.935-145.965
FUNcube-1 01 Mar 11:31:02 11:32:25 11° 297° (WNW) 11:33:37 145.935
ZACube-1 01 Mar 11:31:49 11:33:04 11° 297° (WNW) 11:34:05 437.345
CUSAT 1 01 Mar 11:39:47 11:41:21 14° 268° (W) 11:42:50 437.405
UKube-1 01 Mar 11:43:01 11:44:08 11° 299° (WNW) 11:45:01 .
HUMSAT D 01 Mar 11:46:54 11:48:58 13° 295° (WNW) 11:50:53 437.325/437.525
Gurwin Techsat 1B 01 Mar 11:50:48 11:52:43 12° 59° (ENE) 11:54:54 435.225
SPROUT 01 Mar 11:52:04 11:56:19 57° 100° (E) 12:00:32 437.525
SO-50 01 Mar 11:58:16 12:01:17 16° 250° (WSW) 12:04:06 436.795
50 SAT 01 Mar 12:00:46 12:02:28 12° 296° (WNW) 12:04:00 437.505
TISAT 1 01 Mar 12:01:42 12:05:56 66° 101° (E) 12:10:06 437.305
ITAMSAT 1 01 Mar 12:24:40 12:29:12 32° 67° (ENE) 12:33:50 435.822/435.867
Oscar 19 01 Mar 12:29:07 12:34:17 85° 256° (WSW) 12:39:27 437.125/150
SWISSCUBE 01 Mar 12:32:19 12:36:10 24° 93° (E) 12:40:06 437.505
ISS 01 Mar 12:35:12 12:37:19 16° 1° (N) 12:39:26 145.825
BEESAT 01 Mar 12:41:07 12:45:09 27° 94° (E) 12:49:15 436.000
AO-7 01 Mar 12:44:10 12:48:49 17° 48° (NE) 12:53:50 29.400- 29.500
CUBEBUG 1 01 Mar 12:52:45 12:53:42 10° 299° (WNW) 12:54:25 437.445
ITUPSAT 1 01 Mar 13:07:05 13:11:46 48° 99° (E) 13:16:25 437.325
KKS-1 01 Mar 13:18:57 13:20:28 12° 88° (E) 13:22:14 437.445
Gurwin Techsat 1B 01 Mar 13:26:39 13:31:57 83° 77° (ENE) 13:37:19 435.225
SPROUT 01 Mar 13:29:36 13:32:00 14° 296° (WNW) 13:34:13 437.525
JAS-2 01 Mar 13:39:09 13:41:14 12° 54° (NE) 13:43:43 435.910
TISAT 1 01 Mar 13:39:24 13:41:16 12° 297° (WNW) 13:42:56 437.305
YUBILEINY 01 Mar 14:03:51 14:07:24 14° 76° (ENE) 14:11:38 435.215
ITAMSAT 1 01 Mar 14:03:56 14:08:41 34° 264° (W) 14:13:23 435.822/435.867
SWISSCUBE 01 Mar 14:09:43 14:14:11 38° 290° (WNW) 14:18:35 437.505
ISS 01 Mar 14:11:39 14:14:30 28° 21° (NNE) 14:17:23 145.825
HORYU 2 01 Mar 14:18:11 14:22:36 75° 76° (ENE) 14:27:04 437.375
BEESAT 01 Mar 14:18:43 14:23:04 34° 291° (WNW) 14:27:20 436.000
AO-7 01 Mar 14:32:03 14:40:17 68° 68° (ENE) 14:48:34 29.400- 29.500
ITUPSAT 1 01 Mar 14:45:47 14:49:22 20° 295° (WNW) 14:52:48 437.325
KKS-1 01 Mar 14:53:14 14:57:40 66° 286° (WNW) 15:02:04 437.445
STARS 01 Mar 15:02:56 15:07:21 80° 285° (WNW) 15:11:42 437.465
Gurwin Techsat 1B 01 Mar 15:10:27 15:12:44 12° 274° (W) 15:14:42 435.225
JAS-2 01 Mar 15:19:49 15:25:14 77° 74° (ENE) 15:31:21 435.910
Cubesat XI-IV 01 Mar 15:42:28 15:45:19 15° 60° (ENE) 15:48:23 437.490
ISS 01 Mar 15:47:55 15:51:05 49° 218° (SW) 15:54:14 145.825
CUTE-I 01 Mar 15:51:14 15:54:37 18° 61° (ENE) 15:58:12 437.470
YUBILEINY 01 Mar 15:54:11 16:02:51 74° 95° (E) 16:11:38 435.215
MOZHAYETS 4 01 Mar 15:54:37 15:58:36 28° 94° (E) 16:02:39
HORYU 2 01 Mar 15:59:04 15:59:54 10° 273° (W) 16:00:28 437.375
M-CUBED/EXP-1 PRIME 01 Mar 16:02:42 16:06:43 43° 104° (ESE) 16:11:03 437.505
AUBIESAT-1 01 Mar 16:05:53 16:09:53 41° 104° (ESE) 16:14:12 437.475
BEESAT 3 01 Mar 16:20:12 16:22:59 18° 112° (ESE) 16:25:54 437.485
AO-7 01 Mar 16:26:52 16:33:48 27° 267° (W) 16:40:30 29.400- 29.500
BEESAT 2 01 Mar 16:43:24 16:46:53 27° 115° (ESE) 16:50:28 435.950
VERMONT LUNAR 01 Mar 16:47:00 16:48:33 13° 149° (SSE) 16:50:11 437.305
JAS-2 01 Mar 17:08:28 17:11:26 14° 276° (W) 17:14:11 435.910
AIST 1 01 Mar 17:13:10 17:16:42 23° 72° (ENE) 17:20:18
Cubesat XI-IV 01 Mar 17:19:25 17:24:48 82° 256° (WSW) 17:30:14 437.490
HO-68 01 Mar 17:24:29 17:26:09 11° 48° (NE) 17:28:14 435.675
STRAND 1 01 Mar 17:25:25 17:27:26 13° 87° (E) 17:29:46 437.568
